Meteo Giornale » Osservazioni meteo Slovenia » Portoroz

ore: 11:00 - Osservazioni Meteo Portoroz
Lat. 45° 31' N Lon. 13° 34' E Alt. 95 metri s.l.m.

sereno Europe/Ljubljana

23 °C

Sereno

Temp. 24 Ore

12 °C

23 °C

Nord

1.8 Km/h

Dew point 16 °C

Umidità 64 %

Visibilità  10 Km

Il sole sorge alle ore 07:10

Il sole tramonta alle ore 18:37

Data e Ora Cielo e Fenomeni T °C DP °C Um. % Pres. hPa Vis. km Vento km/h
Oggi h: 11:00 sereno Sereno 23 16 64 1024 10 N 1.8
Oggi h: 10:30 sereno Sereno 21 14 64 1024 10 N 3.7
Oggi h: 10:00 sereno Sereno 20 14 68 1025 10 N 5.5
Oggi h: 09:30 sereno Sereno 18 13 72 1025 10 E/SE 7.4
Oggi h: 09:00 sereno Sereno 16 12 77 1025 10 E/SE 7.4
Oggi h: 08:30 sereno Sereno 14 12 87 1025 10 E 9.3
Oggi h: 08:00 sereno Sereno 13 11 87 1025 10 E/SE 11.1
Oggi h: 07:30 sereno Sereno 12 10 87 1025 10 E/SE 13
Oggi h: 07:00 sereno Sereno 12 10 87 1025 10 E/SE 11.1
Oggi h: 06:30 sereno Sereno 12 10 87 1025 10 E/SE 9.3
Oggi h: 06:00 sereno Sereno 12 10 87 1025 10 E/SE 9.3
Oggi h: 05:30 sereno Sereno 12 10 87 1025 10 E/SE 9.3
Oggi h: 05:00 sereno Sereno 12 11 93 1025 10 E/SE 7.4
Oggi h: 04:30 sereno Sereno 12 11 93 1025 10 N 5.5
Oggi h: 04:00 sereno Sereno 12 11 93 1025 10 E/SE 7.4
Oggi h: 03:30 sereno Sereno 13 11 87 1026 10 E/SE 9.3
Oggi h: 03:00 sereno Sereno 13 11 87 1026 10 E/SE 9.3
Oggi h: 02:30 sereno Sereno 13 11 87 1026 10 E/SE 14.8
Oggi h: 02:00 sereno Sereno 13 11 87 1026 10 E/SE 16.7
Oggi h: 01:30 sereno Sereno 14 12 87 1027 10 E/SE 14.8
Oggi h: 01:00 sereno Sereno 14 12 87 1027 10 E/SE 13
Oggi h: 00:30 sereno Sereno 14 13 93 1027 10 E/SE 13
Oggi h: 00:00 sereno Sereno 14 13 93 1027 8 E/SE 13
Ieri h: 23:30 sereno Sereno 15 13 87 1027 6 E/SE 11.1
Ieri h: 23:00 sereno Sereno 15 14 93 1028 6 E/SE 7.4
Ieri h: 22:30 sereno Sereno 15 14 93 1028 9 E/SE 9.3
Ieri h: 22:00 sereno Sereno 15 14 93 1028 10 E 9.3
Ieri h: 21:30 sereno Sereno 15 14 93 1027 10 E/SE 7.4
Ieri h: 21:00 sereno Sereno 16 14 87 1028 10 N 5.5
Ieri h: 20:30 sereno Sereno 16 15 93 1027 10 N 5.5
Ieri h: 20:00 sereno Sereno 17 15 88 1027 10 N 5.5
Ieri h: 19:30 sereno Sereno 18 16 88 1027 10 N 5.5
Ieri h: 19:00 sereno Sereno 19 16 82 1027 10 N 0
Ieri h: 18:30 sereno Sereno 20 16 77 1027 10 N 5.5
Ieri h: 18:00 sereno Sereno 21 16 73 1027 10 N 5.5
Ieri h: 17:30 sereno Sereno 20 15 72 1027 10 O 7.4
Ieri h: 17:00 sereno Sereno 21 15 68 1027 10 O 9.3
Ieri h: 16:30 sereno Sereno 22 15 64 1027 10 O/NO 9.3
Ieri h: 16:00 sereno Sereno 22 15 64 1027 10 O/NO 7.4
Ieri h: 15:30 sereno Sereno 22 14 60 1027 10 O/NO 7.4
Ieri h: 15:00 sereno Sereno 22 14 60 1027 10 O/NO 7.4
Ieri h: 14:30 sereno Sereno 21 15 68 1027 10 O/NO 9.3
Ieri h: 14:00 sereno Sereno 21 15 68 1027 10 O 11.1
Ieri h: 13:30 nuvoloso Nuvoloso 22 16 68 1028 10 O 11.1
Ieri h: 13:00 nuvoloso Nuvoloso 21 15 68 1028 10 O 11.1
Ieri h: 12:30 nuvoloso Nuvoloso 22 15 64 1028 10 O 9.3
Ieri h: 12:00 nuvoloso Nuvoloso 21 15 68 1028 10 N 5.5